Weather History for Crestview, FL

Change the Weather History Date:

Sunday, August 25, 2013

  Actual Average Record
Temperature  
Mean Temperature 80 °F -  
Max Temperature 88 °F 92 °F 98 °F (1989)
Min Temperature 73 °F 71 °F 64 °F (1997)
Cooling Degree Days 16    
Growing Degree Days 30 (Base 50)    
Moisture  
Dew Point 72 °F    
Average Humidity 80    
Maximum Humidity 94    
Minimum Humidity 57    
Precipitation  
Precipitation 0.00 in - - ()
Sea Level Pressure  
Sea Level Pressure 30.19 in    
Wind  
Wind Speed 5 mph (ENE)    
Max Wind Speed 12 mph    
Max Gust Speed 18 mph    
Visibility 10 miles    
Events      
Averages and records for this station are not official NWS values.
T = Trace of Precipitation, MM = Missing Value Source: NWS Daily Summary

Daily Weather History Graph

Daily Weather History Graph

Search for Another Location

Airport:

Trip Planner

Search our weather history database for the weather conditions in past years. The results will help you decide how hot, cold, wet, or windy it might be!

Date:

Astronomy

Aug. 25, 2013 Rise Set
Actual Time 6:18 AM CDT 7:17 PM CDT
Civil Twilight 5:53 AM CDT 7:41 PM CDT
Nautical Twilight 5:24 AM CDT 8:11 PM CDT
Astronomical Twilight 4:53 AM CDT 8:41 PM CDT
Moon 10:13 PM CDT (8/25) 10:55 AM CDT (8/25)
Length of Visible Light 13h 48m
Length of Day
12h 58m
Waning Gibbous, 75% of the Moon is Illuminated
Aug 25
Waning Gibbous
Aug 28
Last Quarter
Sep 5
New
Sep 12
First Quarter
Sep 19
Full

Hourly Weather History & Observations

Time (CDT) Temp. Heat Index Dew Point Humidity Pressure Visibility Wind Dir Wind Speed Gust Speed Precip Events Conditions
12:53 AM 75.0 °F - 72.0 °F 90% 30.14 in 10.0 mi Calm Calm - N/A   Partly Cloudy
1:53 AM 73.0 °F - 71.1 °F 93% 30.14 in 10.0 mi East 3.5 mph - 0.00 in   Partly Cloudy
2:25 AM 73.4 °F - 71.6 °F 94% 30.16 in 10.0 mi NE 8.1 mph - N/A   Mostly Cloudy
2:32 AM 73.4 °F - 71.6 °F 94% 30.16 in 10.0 mi ENE 9.2 mph - N/A   Mostly Cloudy
2:53 AM 73.9 °F - 70.0 °F 87% 30.15 in 10.0 mi ENE 6.9 mph - N/A   Overcast
3:53 AM 73.9 °F - 70.0 °F 87% 30.15 in 10.0 mi ENE 6.9 mph 16.1 mph 0.00 in   Mostly Cloudy
4:31 AM 73.4 °F - 71.6 °F 94% 30.18 in 10.0 mi East 3.5 mph - N/A   Overcast
4:41 AM 73.4 °F - 71.6 °F 94% 30.18 in 10.0 mi ENE 4.6 mph - N/A   Overcast
4:53 AM 73.9 °F - 71.1 °F 91% 30.18 in 10.0 mi Calm Calm - N/A   Overcast
5:45 AM 73.4 °F - 71.6 °F 94% 30.18 in 10.0 mi ENE 5.8 mph - N/A   Mostly Cloudy
5:53 AM 73.9 °F - 71.1 °F 91% 30.18 in 9.0 mi ENE 3.5 mph - N/A   Mostly Cloudy
6:07 AM 75.2 °F - 71.6 °F 89% 30.19 in 9.0 mi ENE 3.5 mph - N/A   Overcast
6:53 AM 75.0 °F - 72.0 °F 90% 30.19 in 8.0 mi East 6.9 mph - N/A   Overcast
7:53 AM 75.9 °F - 72.0 °F 87% 30.21 in 8.0 mi East 6.9 mph - N/A   Overcast
8:32 AM 77.0 °F - 73.4 °F 89% 30.22 in 8.0 mi ENE 4.6 mph - N/A   Overcast
8:53 AM 77.0 °F - 72.0 °F 84% 30.22 in 8.0 mi East 6.9 mph - N/A   Overcast
9:53 AM 80.1 °F 84.2 °F 73.0 °F 79% 30.22 in 9.0 mi East 6.9 mph 17.3 mph N/A   Mostly Cloudy
10:20 AM 80.6 °F 85.4 °F 73.4 °F 79% 30.22 in 9.0 mi ENE 6.9 mph - N/A   Overcast
10:53 AM 80.1 °F 83.8 °F 72.0 °F 76% 30.21 in 10.0 mi East 9.2 mph - N/A   Scattered Clouds
11:49 AM 82.4 °F 88.2 °F 73.4 °F 74% 30.22 in 10.0 mi ENE 4.6 mph - N/A   Mostly Cloudy
11:53 AM 82.0 °F 87.4 °F 73.0 °F 74% 30.21 in 10.0 mi NE 6.9 mph - N/A   Mostly Cloudy
12:46 PM 84.2 °F 89.6 °F 71.6 °F 66% 30.21 in 10.0 mi ENE 8.1 mph - N/A   Scattered Clouds
12:53 PM 84.9 °F 91.4 °F 73.0 °F 67% 30.20 in 10.0 mi ENE 8.1 mph - N/A   Scattered Clouds
1:15 PM 84.2 °F 89.6 °F 71.6 °F 66% 30.21 in 10.0 mi ENE 11.5 mph 17.3 mph N/A   Mostly Cloudy
1:53 PM 86.0 °F 93.0 °F 73.0 °F 65% 30.19 in 10.0 mi ENE 6.9 mph - N/A   Overcast
2:35 PM 86.0 °F 91.8 °F 71.6 °F 62% 30.18 in 10.0 mi East 6.9 mph - N/A   Mostly Cloudy
2:43 PM 84.2 °F 89.6 °F 71.6 °F 66% 30.18 in 10.0 mi NE 6.9 mph - N/A   Mostly Cloudy
2:53 PM 87.1 °F 94.5 °F 73.0 °F 63% 30.17 in 10.0 mi ENE 6.9 mph - N/A   Scattered Clouds
3:53 PM 88.0 °F 93.8 °F 71.1 °F 57% 30.16 in 10.0 mi ENE 9.2 mph 18.4 mph N/A   Partly Cloudy
4:53 PM 86.0 °F 91.5 °F 71.1 °F 61% 30.16 in 10.0 mi East 8.1 mph - N/A   Partly Cloudy
5:53 PM 84.0 °F 89.0 °F 71.1 °F 65% 30.17 in 10.0 mi ENE 5.8 mph - N/A   Clear
6:53 PM 80.1 °F 83.8 °F 72.0 °F 76% 30.18 in 10.0 mi Calm Calm - N/A   Clear
7:53 PM 77.0 °F - 73.0 °F 88% 30.19 in 10.0 mi Calm Calm - N/A   Clear
8:53 PM 78.1 °F - 71.1 °F 79% 30.21 in 10.0 mi Calm Calm - N/A   Overcast
9:53 PM 77.0 °F - 71.1 °F 82% 30.21 in 10.0 mi ENE 3.5 mph - N/A   Scattered Clouds
10:53 PM 75.9 °F - 70.0 °F 82% 30.22 in 10.0 mi Calm Calm - N/A   Overcast
11:53 PM 75.0 °F - 69.1 °F 82% 30.21 in 10.0 mi NE 3.5 mph - N/A   Scattered Clouds